Find Starlink 37832

NORAD ID: 100231 Int'l Des: 2026-177 Owner: SPXS Country: US Constellation: starlink operational

Current View

Loading 3D Globe...

About Starlink 37832

Starlink 37832 (NORAD 100231) is a starlink constellation satellite launched Aug 4, 2026 by SPXS of US. with a mass of 575.00 kg.

Upcoming Passes

Passes for default location (London). Set your location on the main map for personalized predictions.

Altitude History

Loading altitude history...

Two-Line Element Set

1 A0231U 26177U 26235.53444920 .00330616 00000-0 16529-2 0 9992
2 A0231 97.2828 285.4976 0001254 62.3325 297.8070 15.80939107 4121
Epoch: Aug 23, 2026 • Age: 14 hours

Current Status

Altitude 329.6 km
Apogee / Perigee N/A
Velocity 7.71 km/s
Sub-Earth Point 19.74°N, 88.75°E
Launch Date Aug 4, 2026
Age 19 days
Type internet

Technical Details

Classification Payload
Mass 575.00 kg
Dry Mass 530.00 kg
Total Mass 575.00 kg
Length 0.30 m
Diameter 4.10 m
Span 29.00 m
Shape Box + pan
Manufacturer SPXS
Bus Type Starlink V2MO
Phase Status In Orbit
Owner/State SPXS/US

Most Searched